Total_Precipitation_Accumulation
0.00 0.00 0.00 0.00 0.00 0.00 0.00 0.00 0.00 0.01 0.03 0.16 0.27 0.42 0.43 0.11 0.08 0.06 0.04 0.01 0.00 0.00 0.00 0.00 0.00 0.00 0.00 0.00 0.00 0.00 0.00 0.02 0.00 0.00 0.00 0.00 0.05 0.01 0.00 0.00 0.02 0.05 0.03 0.01
0.00 0.00 0.00 0.00 0.00 0.00 0.00 0.00 0.00 0.01 0.00 0.02 0.16 0.26 0.37 0.31 0.05 0.02 0.04 0.03 0.00 0.00 0.00 0.00 0.00 0.00 0.00 0.00 0.00 0.00 0.00 0.04 0.06 0.01 0.02 0.02 0.00 0.00 0.00 0.02 0.02 0.02 0.07 0.03
0.00 0.00 0.00 0.00 0.00 0.00 0.01 0.00 0.00 0.02 0.02 0.00 0.01 0.11 0.41 0.34 0.16 0.01 0.00 0.04 0.00 0.00 0.00 0.00 0.00 0.00 0.00 0.00 0.00 0.00 0.00 0.03 0.09 0.05 0.01 0.05 0.11 0.12 0.05 0.02 0.02 0.05 0.03 0.07
0.00 0.00 0.00 0.00 0.00 0.00 0.00 0.01 0.00 0.03 0.04 0.03 0.00 0.01 0.23 0.39 0.21 0.04 0.01 0.02 0.01 0.00 0.00 0.00 0.00 0.00 0.00 0.00 0.00 0.00 0.00 0.05 0.04 0.00 0.06 0.17 0.10 0.03 0.10 0.11 0.11 0.07 0.03 0.03
0.00 0.00 0.00 0.00 0.00 0.00 0.00 0.03 0.07 0.04 0.03 0.02 0.01 0.00 0.06 0.32 0.25 0.04 0.00 0.00 0.01 0.00 0.00 0.00 0.00 0.00 0.00 0.00 0.00 0.00 0.00 0.09 0.04 0.05 0.23 0.06 0.04 0.04 0.05 0.07 0.06 0.06 0.06 0.01
0.00 0.00 0.00 0.00 0.00 0.00 0.00 0.01 0.05 0.06 0.06 0.02 0.00 0.00 0.00 0.12 0.14 0.04 0.01 0.00 0.00 0.00 0.00 0.00 0.00 0.00 0.00 0.00 0.00 0.00 0.00 0.01 0.02 0.11 0.08 0.07 0.07 0.08 0.13 0.13 0.07 0.06 0.02 0.00
0.00 0.00 0.00 0.00 0.00 0.00 0.00 0.01 0.04 0.05 0.03 0.00 0.00 0.01 0.00 0.02 0.05 0.02 0.01 0.00 0.00 0.00 0.00 0.00 0.00 0.00 0.00 0.00 0.00 0.00 0.00 0.00 0.00 0.06 0.06 0.06 0.04 0.04 0.11 0.12 0.11 0.12 0.08 0.04
0.00 0.00 0.00 0.00 0.00 0.00 0.01 0.00 0.01 0.00 0.01 0.02 0.01 0.00 0.00 0.01 0.00 0.00 0.00 0.00 0.00 0.00 0.01 0.01 0.00 0.00 0.00 0.00 0.00 0.00 0.00 0.00 0.00 0.00 0.00 0.02 0.05 0.07 0.05 0.08 0.16 0.12 0.09 0.07
0.00 0.00 0.00 0.00 0.00 0.00 0.02 0.01 0.02 0.03 0.03 0.04 0.01 0.00 0.00 0.01 0.01 0.00 0.02 0.02 0.00 0.00 0.00 0.01 0.00 0.00 0.00 0.00 0.00 0.00 0.00 0.00 0.00 0.00 0.00 0.00 0.01 0.04 0.01 0.04 0.18 0.10 0.20 0.09
0.00 0.00 0.00 0.00 0.00 0.00 0.00 0.06 0.07 0.05 0.07 0.02 0.00 0.00 0.00 0.01 0.00 0.00 0.01 0.02 0.00 0.00 0.00 0.00 0.00 0.00 0.00 0.00 0.00 0.00 0.00 0.00 0.00 0.00 0.00 0.00 0.00 0.02 0.10 0.04 0.12 0.09 0.18 0.14
0.00 0.00 0.00 0.00 0.00 0.00 0.00 0.02 0.05 0.04 0.03 0.02 0.02 0.01 0.05 0.00 0.00 0.00 0.01 0.00 0.00 0.00 0.00 0.00 0.02 0.01 0.02 0.01 0.00 0.00 0.00 0.00 0.00 0.00 0.00 0.00 0.00 0.00 0.04 0.06 0.18 0.24 0.16 0.09
0.00 0.00 0.00 0.00 0.00 0.00 0.00 0.00 0.00 0.02 0.01 0.02 0.01 0.04 0.02 0.00 0.00 0.00 0.02 0.00 0.00 0.00 0.01 0.01 0.03 0.02 0.02 0.00 0.00 0.00 0.00 0.00 0.00 0.00 0.00 0.00 0.00 0.00 0.00 0.05 0.08 0.17 0.15 0.17
0.00 0.00 0.00 0.00 0.00 0.00 0.00 0.00 0.00 0.00 0.02 0.06 0.02 0.01 0.07 0.00 0.00 0.00 0.00 0.00 0.00 0.01 0.02 0.03 0.02 0.04 0.01 0.00 0.00 0.00 0.00 0.00 0.04 0.05 0.06 0.02 0.01 0.01 0.04 0.04 0.04 0.08 0.08 0.05
0.00 0.00 0.00 0.00 0.01 0.00 0.03 0.02 0.00 0.00 0.00 0.00 0.00 0.00 0.02 0.02 0.00 0.00 0.00 0.00 0.00 0.07 0.08 0.08 0.04 0.02 0.02 0.03 0.04 0.02 0.07 0.07 0.03 0.05 0.05 0.08 0.04 0.03 0.07 0.05 0.03 0.06 0.10 0.11
0.00 0.00 0.00 0.00 0.00 0.01 0.03 0.12 0.15 0.03 0.00 0.00 0.00 0.00 0.02 0.15 0.00 0.00 0.00 0.00 0.00 0.01 0.03 0.09 0.07 0.04 0.05 0.10 0.09 0.12 0.18 0.19 0.15 0.13 0.13 0.13 0.17 0.16 0.20 0.14 0.13 0.10 0.11 0.15
0.00 0.00 0.00 0.01 0.00 0.00 0.01 0.01 0.01 0.04 0.01 0.00 0.00 0.00 0.01 0.04 0.00 0.00 0.00 0.00 0.00 0.01 0.00 0.08 0.26 0.20 0.12 0.15 0.19 0.29 0.26 0.28 0.19 0.16 0.31 0.41 0.36 0.37 0.28 0.19 0.27 0.23 0.16 0.13
0.00 0.01 0.01 0.00 0.00 0.01 0.02 0.00 0.00 0.01 0.02 0.03 0.02 0.01 0.10 0.14 0.09 0.07 0.07 0.10 0.16 0.08 0.02 0.09 0.30 0.26 0.29 0.23 0.29 0.38 0.34 0.25 0.23 0.25 0.24 0.25 0.33 0.30 0.30 0.23 0.32 0.37 0.32 0.26
0.00 0.00 0.02 0.01 0.05 0.11 0.06 0.01 0.01 0.00 0.00 0.01 0.02 0.03 0.09 0.09 0.12 0.07 0.05 0.12 0.27 0.24 0.20 0.26 0.34 0.34 0.44 0.42 0.37 0.33 0.33 0.31 0.24 0.22 0.33 0.37 0.37 0.44 0.42 0.31 0.22 0.18 0.13 0.15
0.00 0.00 0.01 0.05 0.10 0.03 0.00 0.00 0.00 0.00 0.00 0.00 0.01 0.08 0.10 0.21 0.26 0.23 0.27 0.23 0.22 0.30 0.51 0.54 0.35 0.27 0.25 0.61 0.60 0.58 0.50 0.38 0.35 0.36 0.34 0.27 0.31 0.35 0.44 0.44 0.47 0.39 0.24 0.19
0.00 0.00 0.01 0.03 0.12 0.07 0.04 0.12 0.11 0.03 0.01 0.00 0.00 0.15 0.25 0.19 0.29 0.15 0.15 0.16 0.20 0.26 0.34 0.30 0.13 0.14 0.26 0.47 0.45 0.54 0.50 0.54 0.49 0.44 0.56 0.60 0.69 0.59 0.64 0.97 1.10 1.00 0.88 0.61
0.00 0.00 0.01 0.02 0.07 0.01 0.00 0.01 0.00 0.07 0.08 0.02 0.01 0.19 0.30 0.34 0.26 0.18 0.11 0.04 0.03 0.03 0.14 0.18 0.05 0.16 0.17 0.30 0.36 0.39 0.37 0.37 0.59 0.77 0.89 0.68 0.75 1.00 0.98 0.99 1.17 1.24 1.27 1.28
0.00 0.01 0.02 0.02 0.09 0.06 0.00 0.00 0.03 0.04 0.02 0.05 0.11 0.34 0.50 0.32 0.07 0.10 0.03 0.02 0.00 0.01 0.06 0.06 0.06 0.11 0.19 0.20 0.22 0.22 0.37 0.49 0.43 0.94 0.94 1.55 1.28 1.26 1.31 1.35 1.41 1.40 1.39 1.28
0.01 0.01 0.04 0.02 0.04 0.01 0.00 0.00 0.01 0.03 0.04 0.03 0.07 0.17 0.21 0.20 0.13 0.05 0.00 0.01 0.00 0.00 0.00 0.00 0.02 0.02 0.05 0.11 0.17 0.21 0.22 0.32 0.29 0.46 0.68 1.01 1.66 1.12 0.96 0.85 0.81 0.81 0.69 0.48
0.00 0.00 0.00 0.00 0.00 0.01 0.01 0.02 0.02 0.01 0.00 0.00 0.02 0.03 0.01 0.03 0.02 0.02 0.00 0.00 0.00 0.00 0.00 0.00 0.00 0.00 0.00 0.02 0.07 0.11 0.10 0.11 0.11 0.13 0.16 0.18 0.28 0.23 0.22 0.21 0.26 0.38 0.47 0.55
0.01 0.00 0.00 0.00 0.00 0.03 0.06 0.08 0.01 0.00 0.01 0.01 0.01 0.00 0.00 0.00 0.00 0.00 0.00 0.00 0.00 0.00 0.00 0.00 0.00 0.00 0.00 0.00 0.01 0.01 0.02 0.01 0.01 0.01 0.00 0.00 0.01 0.03 0.06 0.07 0.12 0.14 0.17 0.22
0.00 0.00 0.00 0.00 0.00 0.04 0.03 0.00 0.00 0.01 0.03 0.01 0.00 0.00 0.03 0.05 0.01 0.00 0.00 0.00 0.00 0.00 0.00 0.00 0.00 0.00 0.00 0.00 0.00 0.00 0.00 0.00 0.00 0.00 0.00 0.00 0.00 0.00 0.00 0.00 0.00 0.01 0.04 0.04